Location: Dead Woman Crossing
(43.5369°N, 106.3228°W)
Time: 16:21:12
(UTC+00:00)

O/OREOS (USA 219) - Pass Details

Date: 07 July 2022
Orbit: 621 x 646 km, 72.0° (Epoch: 22 May)

Event Time Altitude Azimuth Distance (km) Brightness Sun altitude
Rises 06:07:25 0° 338° (NNW) 2,966 ? -22.3°
Reaches altitude 10° 06:09:43 10° 341° (NNW) 2,053 ? -22.4°
Maximum altitude 06:14:19 71° 65° (ENE) 686 ? -22.6°
Enters shadow 06:14:57 61° 116° (ESE) 734 ? -22.7°
